Location: Norton
(51.3000°N, 0.8167°E)
Time: 14:05:48
(UTC+00:00)

CZ-4 R/B - Pass Details

Date: 03 March 2021
Orbit: 532 x 597 km, 97.7° (Epoch: 11 April)

Event Time Altitude Azimuth Distance (km) Brightness Sun altitude
Rises 19:39:53 0° 210° (SSW) 2,673 5.0 -19.2°
Reaches altitude 10° 19:42:43 10° 233° (SW) 1,795 4.4 -19.7°
Maximum altitude 19:45:03 15° 271° (W) 1,494 4.5 -20.0°
Drops below altitude 10° 19:47:26 10° 308° (NW) 1,820 4.9 -20.4°
Sets 19:50:21 0° 332° (NNW) 2,732 5.5 -20.8°
